Flag for U.S.A. Weather past 2 weeks in Alexandria, Virginia, U.S.A.

Now
73 °F

Partly sunny.


Feels Like: 77 °F
Forecast: 50 / 70 °F
Wind: 8 mph from East

Location: Reagan National Airport

Current Time: Sep 23, 2014 at 7:09:25 PM

Latest Report: Sep 23, 2014 at 5:52 PM


Visibility: 10 mi

Pressure: 30.32 "Hg

Humidity: 32%

Dew point: 41 °F

Location of AlexandriaLocation

Historic Weather in Alexandria — Graph

°F

Alexandria temperature yesterday

Maximum temperature yesterday: 76 °F (at 12:52 AM)
Minimum temperature yesterday: 60 °F (at 11:52 PM)
Average temperature yesterday: 70 °F

Past Weeks' High & Low Weather Summary

 TemperatureHumidityPressure
High90 °F (Sep 11, 4:52 PM)85% (Sep 20, 3:52 AM)30.38 "Hg (Sep 20, 3:52 AM)
Low54 °F (Sep 23, 6:52 AM)30% (Sep 23, 4:52 PM)29.65 "Hg (Sep 21, 5:52 PM)
Average71 °F59%30.09 "Hg
* Reported Sep 8 5:52 PM — Sep 23 5:52 PM, Alexandria, Weather by CustomWeather, © 2014

Note: Actual official high and low records may vary slightly from our data, if they occured in-between our weather recording intervals... More about our weather records

Advertising

Alexandria weather history for previous 24 hours

 ConditionsComfort  
Time TempWeatherWind HumidityBarometerVisibility
5:52 PM
Sep 23
73 °FPartly sunny.8 mph32%30.32 "Hg10 mi
4:52 PM73 °FPartly sunny.6 mph30%30.30 "Hg9 mi
3:52 PM74 °FPartly sunny.8 mph33%30.32 "Hg10 mi
2:52 PM73 °FOvercast.No wind32%30.33 "Hg10 mi
1:52 PM70 °FOvercast.5 mph37%30.34 "Hg10 mi
12:52 PM68 °FPartly sunny.3 mph36%30.37 "Hg10 mi
11:52 AM66 °FPartly sunny.No wind40%30.38 "Hg10 mi
10:52 AM64 °FPartly sunny.5 mph43%30.37 "Hg10 mi
9:52 AM62 °FScattered clouds.6 mph50%30.36 "Hg10 mi
8:52 AM60 °FScattered clouds.8 mph52%30.35 "Hg10 mi
7:52 AM57 °FPassing clouds.7 mph60%30.33 "Hg10 mi
6:52 AM54 °FPassing clouds.8 mph64%30.32 "Hg10 mi
5:52 AM55 °FPassing clouds.6 mph62%30.29 "Hg10 mi
4:52 AM55 °FPassing clouds.5 mph59%30.28 "Hg10 mi
3:52 AM57 °FPassing clouds.10 mph55%30.27 "Hg10 mi
2:52 AM57 °FPassing clouds.9 mph58%30.25 "Hg10 mi
1:52 AM58 °FPassing clouds.10 mph56%30.25 "Hg10 mi
12:52 AM59 °FPassing clouds.10 mph56%30.25 "Hg10 mi
11:52 PM
Sep 22
60 °FPassing clouds.9 mph53%30.24 "Hg10 mi
10:52 PM62 °FPassing clouds.10 mph48%30.24 "Hg10 mi
9:52 PM63 °FPassing clouds.9 mph47%30.21 "Hg10 mi
8:52 PM65 °FPassing clouds.12 mph44%30.18 "Hg10 mi
7:52 PM67 °FScattered clouds.12 mph42%30.13 "Hg10 mi
Weather by CustomWeather, © 2014

See weather overviewHow to use our weather pages